Time,TemperatureF,DewpointF,PressureIn,WindDirection,WindDirectionDegrees,WindSpeedMPH,WindSpeedGustMPH,Humidity,HourlyPrecipIn,Conditions,Clouds,dailyrainin,SoftwareType,DateUTC
2013-05-07 00:01:00,63.5,51.9,29.90,ENE,68,0.0,0.0,66,0.00,,,0.00,WUHU216HW,2013-05-07 05:01:00,
2013-05-07 00:06:00,63.5,51.6,29.90,ENE,68,0.0,0.0,65,0.00,,,0.00,WUHU216HW,2013-05-07 05:06:00,
2013-05-07 00:11:00,63.5,51.6,29.90,ENE,68,0.0,0.0,65,0.00,,,0.00,WUHU216HW,2013-05-07 05:11:00,
2013-05-07 00:16:00,63.5,51.6,29.91,ENE,68,0.0,0.0,65,0.00,,,0.00,WUHU216HW,2013-05-07 05:16:00,
2013-05-07 00:21:00,63.5,51.6,29.91,NE,45,0.0,0.0,65,0.00,,,0.00,WUHU216HW,2013-05-07 05:21:00,
2013-05-07 00:26:00,63.5,51.6,29.91,NNW,338,0.4,0.9,65,0.00,,,0.00,WUHU216HW,2013-05-07 05:26:00,
2013-05-07 00:31:00,63.4,51.8,29.91,ENE,68,0.0,0.9,66,0.00,,,0.00,WUHU216HW,2013-05-07 05:31:00,
2013-05-07 00:36:00,63.2,51.2,29.91,ENE,68,1.8,1.8,65,0.00,,,0.00,WUHU216HW,2013-05-07 05:36:00,
2013-05-07 00:41:00,63.0,51.4,29.91,ENE,68,1.6,1.8,66,0.00,,,0.00,WUHU216HW,2013-05-07 05:41:00,
2013-05-07 00:46:00,62.6,51.1,29.91,NE,45,1.3,2.0,66,0.00,,,0.00,WUHU216HW,2013-05-07 05:46:00,
2013-05-07 00:51:00,62.6,51.5,29.91,ENE,68,1.3,2.0,67,0.00,,,0.00,WUHU216HW,2013-05-07 05:51:00,
2013-05-07 00:56:00,62.5,51.3,29.91,ENE,68,1.1,2.0,67,0.00,,,0.00,WUHU216HW,2013-05-07 05:56:00,
2013-05-07 01:01:00,62.3,51.2,29.91,ENE,68,0.2,1.8,67,0.00,,,0.00,WUHU216HW,2013-05-07 06:01:00,
2013-05-07 01:06:00,61.9,50.9,29.91,NNE,23,0.0,1.1,67,0.00,,,0.00,WUHU216HW,2013-05-07 06:06:00,
2013-05-07 01:11:00,61.7,50.7,29.91,NNE,23,0.0,0.0,67,0.00,,,0.00,WUHU216HW,2013-05-07 06:11:00,
2013-05-07 01:16:00,61.4,50.8,29.91,NNW,338,0.0,0.9,68,0.00,,,0.00,WUHU216HW,2013-05-07 06:16:00,
2013-05-07 01:21:00,61.4,51.2,29.91,North,0,0.4,1.6,69,0.00,,,0.00,WUHU216HW,2013-05-07 06:21:00,
2013-05-07 01:26:00,61.2,51.0,29.92,North,0,0.4,1.6,69,0.00,,,0.00,WUHU216HW,2013-05-07 06:26:00,
2013-05-07 01:31:00,61.0,50.5,29.91,ENE,68,0.0,1.6,68,0.00,,,0.00,WUHU216HW,2013-05-07 06:31:00,
2013-05-07 01:36:00,60.8,50.7,29.91,NNW,338,0.9,2.5,69,0.00,,,0.00,WUHU216HW,2013-05-07 06:36:00,
2013-05-07 01:41:00,60.7,50.5,29.91,ENE,68,2.0,2.5,69,0.00,,,0.00,WUHU216HW,2013-05-07 06:41:00,
2013-05-07 01:46:00,60.7,50.5,29.91,ENE,68,1.3,2.5,69,0.00,,,0.00,WUHU216HW,2013-05-07 06:46:00,
2013-05-07 01:51:00,60.7,50.5,29.90,ENE,68,1.1,2.0,69,0.00,,,0.00,WUHU216HW,2013-05-07 06:51:00,
2013-05-07 01:56:00,60.3,50.9,29.90,North,0,1.6,2.2,71,0.00,,,0.00,WUHU216HW,2013-05-07 06:56:00,
2013-05-07 02:01:00,59.9,50.6,29.90,NE,45,2.0,2.7,71,0.00,,,0.00,WUHU216HW,2013-05-07 07:01:00,
2013-05-07 02:06:00,59.8,50.4,29.90,NE,45,4.0,4.0,71,0.00,,,0.00,WUHU216HW,2013-05-07 07:06:00,
2013-05-07 02:11:00,59.9,50.6,29.90,NE,45,4.3,4.9,71,0.00,,,0.00,WUHU216HW,2013-05-07 07:11:00,
2013-05-07 02:16:00,59.9,50.6,29.90,NE,45,3.6,4.9,71,0.00,,,0.00,WUHU216HW,2013-05-07 07:16:00,
2013-05-07 02:21:00,59.9,50.6,29.89,NNE,23,3.4,4.7,71,0.00,,,0.00,WUHU216HW,2013-05-07 07:21:00,
2013-05-07 02:26:00,60.1,50.8,29.90,North,0,1.8,4.0,71,0.00,,,0.00,WUHU216HW,2013-05-07 07:26:00,
2013-05-07 02:31:00,60.1,50.8,29.90,NNW,338,0.4,4.0,71,0.00,,,0.00,WUHU216HW,2013-05-07 07:31:00,
2013-05-07 02:36:00,60.1,50.8,29.91,NW,315,1.6,1.8,71,0.00,,,0.00,WUHU216HW,2013-05-07 07:36:00,
2013-05-07 02:41:00,59.9,50.6,29.91,North,0,1.1,2.5,71,0.00,,,0.00,WUHU216HW,2013-05-07 07:41:00,
2013-05-07 02:46:00,59.8,50.4,29.91,North,0,0.9,2.5,71,0.00,,,0.00,WUHU216HW,2013-05-07 07:46:00,
2013-05-07 02:51:00,59.8,50.4,29.91,NNE,23,1.8,2.5,71,0.00,,,0.00,WUHU216HW,2013-05-07 07:51:00,
2013-05-07 02:56:00,59.6,50.2,29.91,NNW,338,3.4,4.0,71,0.00,,,0.00,WUHU216HW,2013-05-07 07:56:00,
2013-05-07 03:01:00,59.4,50.0,29.90,NE,45,3.1,4.0,71,0.00,,,0.00,WUHU216HW,2013-05-07 08:01:00,
2013-05-07 03:06:00,59.2,50.2,29.90,East,90,1.1,3.4,72,0.00,,,0.00,WUHU216HW,2013-05-07 08:06:00,
2013-05-07 03:11:00,59.0,50.0,29.91,SSW,203,3.6,3.8,72,0.00,,,0.00,WUHU216HW,2013-05-07 08:11:00,
2013-05-07 03:16:00,58.5,49.9,29.91,SW,225,1.6,4.0,73,0.00,,,0.00,WUHU216HW,2013-05-07 08:16:00,
2013-05-07 03:21:00,58.5,49.9,29.91,North,0,2.0,4.0,73,0.00,,,0.00,WUHU216HW,2013-05-07 08:21:00,
2013-05-07 03:26:00,58.5,49.9,29.90,NE,45,3.6,3.6,73,0.00,,,0.00,WUHU216HW,2013-05-07 08:26:00,
2013-05-07 03:31:00,58.5,49.9,29.90,NE,45,4.7,5.1,73,0.00,,,0.00,WUHU216HW,2013-05-07 08:31:00,
2013-05-07 03:36:00,58.5,49.9,29.90,ENE,68,1.6,5.1,73,0.00,,,0.00,WUHU216HW,2013-05-07 08:36:00,
2013-05-07 03:41:00,58.3,49.7,29.91,SSW,203,5.1,5.1,73,0.00,,,0.00,WUHU216HW,2013-05-07 08:41:00,
2013-05-07 03:46:00,58.1,49.9,29.91,SSW,203,1.1,5.4,74,0.00,,,0.00,WUHU216HW,2013-05-07 08:46:00,
2013-05-07 03:51:00,58.1,49.9,29.91,ENE,68,1.6,5.4,74,0.00,,,0.00,WUHU216HW,2013-05-07 08:51:00,
2013-05-07 03:56:00,58.3,50.0,29.90,NE,45,2.5,4.3,74,0.00,,,0.00,WUHU216HW,2013-05-07 08:56:00,
2013-05-07 04:01:00,58.3,50.0,29.91,ENE,68,1.6,4.3,74,0.00,,,0.00,WUHU216HW,2013-05-07 09:01:00,
2013-05-07 04:06:00,58.7,50.0,29.91,SSE,158,1.3,2.5,73,0.00,,,0.00,WUHU216HW,2013-05-07 09:06:00,
2013-05-07 04:11:00,58.5,49.9,29.91,SSW,203,1.1,5.1,73,0.00,,,0.00,WUHU216HW,2013-05-07 09:11:00,
2013-05-07 04:16:00,58.3,49.7,29.91,SW,225,1.8,5.1,73,0.00,,,0.00,WUHU216HW,2013-05-07 09:16:00,
2013-05-07 04:21:00,58.3,49.7,29.91,SSW,203,0.0,2.0,73,0.00,,,0.00,WUHU216HW,2013-05-07 09:21:00,
2013-05-07 04:26:00,58.5,49.9,29.91,SSW,203,0.0,1.8,73,0.00,,,0.00,WUHU216HW,2013-05-07 09:26:00,
2013-05-07 04:31:00,58.5,49.9,29.91,NW,315,1.1,1.3,73,0.00,,,0.00,WUHU216HW,2013-05-07 09:31:00,
2013-05-07 04:36:00,58.5,49.9,29.91,NW,315,1.3,1.6,73,0.00,,,0.00,WUHU216HW,2013-05-07 09:36:00,
2013-05-07 04:41:00,58.3,49.7,29.92,West,270,1.1,1.8,73,0.00,,,0.00,WUHU216HW,2013-05-07 09:41:00,
2013-05-07 04:46:00,58.0,49.3,29.92,ENE,68,1.3,1.8,73,0.00,,,0.00,WUHU216HW,2013-05-07 09:46:00,
2013-05-07 04:51:00,57.6,49.0,29.91,NE,45,1.3,2.0,73,0.00,,,0.00,WUHU216HW,2013-05-07 09:51:00,
2013-05-07 04:56:00,57.6,49.0,29.91,NE,45,0.7,2.0,73,0.00,,,0.00,WUHU216HW,2013-05-07 09:56:00,
2013-05-07 05:01:00,57.4,48.8,29.91,NE,45,1.1,1.1,73,0.00,,,0.00,WUHU216HW,2013-05-07 10:01:00,
2013-05-07 05:06:00,57.4,48.8,29.91,NE,45,1.3,1.3,73,0.00,,,0.00,WUHU216HW,2013-05-07 10:06:00,
2013-05-07 05:11:00,57.4,48.8,29.91,NE,45,1.1,1.3,73,0.00,,,0.00,WUHU216HW,2013-05-07 10:11:00,
2013-05-07 05:16:00,57.4,48.8,29.91,NE,45,1.3,1.6,73,0.00,,,0.00,WUHU216HW,2013-05-07 10:16:00,
2013-05-07 05:21:00,57.4,48.8,29.91,NE,45,1.3,1.8,73,0.00,,,0.00,WUHU216HW,2013-05-07 10:21:00,
2013-05-07 05:26:00,57.4,48.8,29.91,ENE,68,0.2,1.8,73,0.00,,,0.00,WUHU216HW,2013-05-07 10:26:00,
2013-05-07 05:31:00,57.2,48.6,29.91,ENE,68,0.0,1.3,73,0.00,,,0.00,WUHU216HW,2013-05-07 10:31:00,
2013-05-07 05:36:00,57.2,48.6,29.92,North,0,0.0,0.2,73,0.00,,,0.00,WUHU216HW,2013-05-07 10:36:00,
2013-05-07 05:41:00,57.2,48.6,29.92,North,0,0.0,0.0,73,0.00,,,0.00,WUHU216HW,2013-05-07 10:41:00,
2013-05-07 05:46:00,57.1,48.4,29.92,NE,45,0.0,0.0,73,0.00,,,0.00,WUHU216HW,2013-05-07 10:46:00,
2013-05-07 05:51:00,57.1,48.4,29.92,NE,45,1.6,1.6,73,0.00,,,0.00,WUHU216HW,2013-05-07 10:51:00,
2013-05-07 05:56:00,56.5,48.6,29.92,NNE,23,0.9,1.6,75,0.00,,,0.00,WUHU216HW,2013-05-07 10:56:00,
2013-05-07 06:01:00,55.8,48.3,29.93,NNE,23,1.3,1.6,76,0.00,,,0.00,WUHU216HW,2013-05-07 11:01:00,
2013-05-07 06:06:00,55.6,48.2,29.92,NNE,23,1.1,1.3,76,0.00,,,0.00,WUHU216HW,2013-05-07 11:06:00,
2013-05-07 06:11:00,55.6,48.2,29.93,NNE,23,0.7,1.3,76,0.00,,,0.00,WUHU216HW,2013-05-07 11:11:00,
2013-05-07 06:16:00,55.4,48.0,29.93,NE,45,0.4,1.3,76,0.00,,,0.00,WUHU216HW,2013-05-07 11:16:00,
2013-05-07 06:21:00,55.6,48.2,29.93,NE,45,0.0,1.3,76,0.00,,,0.00,WUHU216HW,2013-05-07 11:21:00,
2013-05-07 06:26:00,55.6,47.8,29.93,NE,45,0.0,1.1,75,0.00,,,0.00,WUHU216HW,2013-05-07 11:26:00,
2013-05-07 06:31:00,55.6,47.8,29.93,NE,45,0.0,0.0,75,0.00,,,0.00,WUHU216HW,2013-05-07 11:31:00,
2013-05-07 06:36:00,55.6,47.8,29.92,NE,45,0.0,0.0,75,0.00,,,0.00,WUHU216HW,2013-05-07 11:36:00,
2013-05-07 06:41:00,55.6,47.8,29.92,ENE,68,1.6,1.6,75,0.00,,,0.00,WUHU216HW,2013-05-07 11:41:00,
2013-05-07 06:46:00,55.6,47.8,29.92,ENE,68,1.8,1.8,75,0.00,,,0.00,WUHU216HW,2013-05-07 11:46:00,
2013-05-07 06:51:00,55.6,47.8,29.92,East,90,1.3,1.8,75,0.00,,,0.00,WUHU216HW,2013-05-07 11:51:00,
2013-05-07 06:56:00,55.4,47.6,29.92,East,90,0.7,1.8,75,0.00,,,0.00,WUHU216HW,2013-05-07 11:56:00,
2013-05-07 07:01:00,55.3,47.4,29.92,East,90,1.1,1.6,75,0.00,,,0.00,WUHU216HW,2013-05-07 12:01:00,
2013-05-07 07:06:00,55.4,48.0,29.92,East,90,0.0,1.6,76,0.00,,,0.00,WUHU216HW,2013-05-07 12:06:00,
2013-05-07 07:11:00,55.4,48.0,29.92,ENE,68,0.4,1.1,76,0.00,,,0.00,WUHU216HW,2013-05-07 12:11:00,
2013-05-07 07:16:00,55.6,48.2,29.93,ENE,68,0.9,1.3,76,0.00,,,0.00,WUHU216HW,2013-05-07 12:16:00,
2013-05-07 07:21:00,56.0,48.8,29.93,ENE,68,0.0,1.3,77,0.00,,,0.00,WUHU216HW,2013-05-07 12:21:00,
2013-05-07 07:26:00,56.2,49.0,29.93,ENE,68,0.0,0.9,77,0.00,,,0.00,WUHU216HW,2013-05-07 12:26:00,
2013-05-07 07:31:00,56.3,49.5,29.93,ENE,68,0.4,1.1,78,0.00,,,0.00,WUHU216HW,2013-05-07 12:31:00,
2013-05-07 07:36:00,56.9,50.4,29.93,ESE,113,1.8,1.8,79,0.00,,,0.00,WUHU216HW,2013-05-07 12:36:00,
2013-05-07 07:41:00,57.2,50.8,29.93,ESE,113,1.8,2.5,79,0.00,,,0.00,WUHU216HW,2013-05-07 12:41:00,
2013-05-07 07:46:00,57.6,51.1,29.93,ESE,113,2.9,3.4,79,0.00,,,0.00,WUHU216HW,2013-05-07 12:46:00,
2013-05-07 07:51:00,58.1,51.7,29.93,SE,135,2.0,3.4,79,0.00,,,0.00,WUHU216HW,2013-05-07 12:51:00,
2013-05-07 07:56:00,58.3,51.5,29.94,SSE,158,2.5,2.9,78,0.00,,,0.00,WUHU216HW,2013-05-07 12:56:00,
2013-05-07 08:01:00,58.7,51.8,29.94,SE,135,1.6,2.5,78,0.00,,,0.00,WUHU216HW,2013-05-07 13:01:00,
2013-05-07 08:06:00,59.2,52.4,29.94,SE,135,2.0,2.9,78,0.00,,,0.00,WUHU216HW,2013-05-07 13:06:00,
2013-05-07 08:11:00,59.6,52.7,29.94,SSE,158,2.9,3.1,78,0.00,,,0.00,WUHU216HW,2013-05-07 13:11:00,
2013-05-07 08:16:00,59.9,52.7,29.94,SE,135,2.5,3.4,77,0.00,,,0.00,WUHU216HW,2013-05-07 13:16:00,
2013-05-07 08:21:00,60.5,53.6,29.94,SSE,158,1.8,4.3,78,0.00,,,0.00,WUHU216HW,2013-05-07 13:21:00,
2013-05-07 08:26:00,61.0,53.8,29.94,SSE,158,3.6,4.3,77,0.00,,,0.00,WUHU216HW,2013-05-07 13:26:00,
2013-05-07 08:31:00,61.6,53.9,29.94,SSE,158,5.8,5.8,76,0.00,,,0.00,WUHU216HW,2013-05-07 13:31:00,
2013-05-07 08:36:00,62.1,54.1,29.94,SE,135,4.0,5.8,75,0.00,,,0.00,WUHU216HW,2013-05-07 13:36:00,
2013-05-07 08:41:00,62.6,54.2,29.94,SE,135,5.4,6.3,74,0.00,,,0.00,WUHU216HW,2013-05-07 13:41:00,
2013-05-07 08:46:00,63.2,54.7,29.95,ESE,113,4.5,6.9,74,0.00,,,0.00,WUHU216HW,2013-05-07 13:46:00,
2013-05-07 08:51:00,63.7,54.9,29.95,SE,135,4.0,6.9,73,0.00,,,0.00,WUHU216HW,2013-05-07 13:51:00,
2013-05-07 08:56:00,64.4,55.6,29.95,SE,135,4.7,7.4,73,0.00,,,0.00,WUHU216HW,2013-05-07 13:56:00,
2013-05-07 09:01:00,64.8,55.6,29.95,SW,225,5.4,7.4,72,0.00,,,0.00,WUHU216HW,2013-05-07 14:01:00,
2013-05-07 09:06:00,65.3,55.4,29.96,SSW,203,6.9,6.9,70,0.00,,,0.00,WUHU216HW,2013-05-07 14:06:00,
2013-05-07 09:11:00,65.9,55.8,29.96,SSE,158,2.9,6.9,70,0.00,,,0.00,WUHU216HW,2013-05-07 14:11:00,
2013-05-07 09:16:00,66.6,56.5,29.96,SSE,158,6.5,8.3,70,0.00,,,0.00,WUHU216HW,2013-05-07 14:16:00,
2013-05-07 09:21:00,67.0,56.1,29.96,SSW,203,4.7,8.3,68,0.00,,,0.00,WUHU216HW,2013-05-07 14:21:00,
2013-05-07 09:26:00,67.3,56.4,29.96,SE,135,4.0,7.4,68,0.00,,,0.00,WUHU216HW,2013-05-07 14:26:00,
2013-05-07 09:31:00,67.3,56.0,29.96,SSE,158,3.4,7.4,67,0.00,,,0.00,WUHU216HW,2013-05-07 14:31:00,
2013-05-07 09:36:00,67.9,56.1,29.96,SSE,158,2.7,6.3,66,0.00,,,0.00,WUHU216HW,2013-05-07 14:36:00,
2013-05-07 09:41:00,68.4,56.6,29.96,SSE,158,4.3,6.3,66,0.00,,,0.00,WUHU216HW,2013-05-07 14:41:00,
2013-05-07 09:46:00,68.9,56.7,29.96,SE,135,4.0,7.6,65,0.00,,,0.00,WUHU216HW,2013-05-07 14:46:00,
2013-05-07 09:51:00,69.1,56.8,29.96,SE,135,3.8,7.6,65,0.00,,,0.00,WUHU216HW,2013-05-07 14:51:00,
2013-05-07 09:56:00,69.5,56.8,29.96,SE,135,3.4,7.2,64,0.00,,,0.00,WUHU216HW,2013-05-07 14:56:00,
2013-05-07 10:01:00,69.8,56.7,29.95,SW,225,7.2,7.2,63,0.00,,,0.00,WUHU216HW,2013-05-07 15:01:00,
2013-05-07 10:06:00,70.2,55.8,29.95,SSW,203,6.5,8.1,60,0.00,,,0.00,WUHU216HW,2013-05-07 15:06:00,
2013-05-07 10:11:00,70.4,56.8,29.95,SSE,158,6.3,8.1,62,0.00,,,0.00,WUHU216HW,2013-05-07 15:11:00,
2013-05-07 10:16:00,70.7,56.7,29.95,South,180,8.5,8.5,61,0.00,,,0.00,WUHU216HW,2013-05-07 15:16:00,
2013-05-07 10:21:00,71.1,57.0,29.95,SSE,158,5.6,8.5,61,0.00,,,0.00,WUHU216HW,2013-05-07 15:21:00,
2013-05-07 10:26:00,71.5,57.3,29.94,SW,225,6.0,8.5,61,0.00,,,0.00,WUHU216HW,2013-05-07 15:26:00,
2013-05-07 10:31:00,71.8,56.7,29.94,SSW,203,5.6,7.2,59,0.00,,,0.00,WUHU216HW,2013-05-07 15:31:00,
2013-05-07 10:36:00,72.2,56.1,29.95,South,180,3.4,7.2,57,0.00,,,0.00,WUHU216HW,2013-05-07 15:36:00,
2013-05-07 10:41:00,72.4,56.7,29.95,SSW,203,4.0,7.2,58,0.00,,,0.00,WUHU216HW,2013-05-07 15:41:00,
2013-05-07 10:46:00,72.7,57.1,29.95,SW,225,2.9,6.3,58,0.00,,,0.00,WUHU216HW,2013-05-07 15:46:00,
2013-05-07 10:51:00,73.3,57.0,29.95,SSW,203,5.4,6.3,57,0.00,,,0.00,WUHU216HW,2013-05-07 15:51:00,
2013-05-07 10:56:00,73.8,57.5,29.95,SSE,158,4.0,6.3,57,0.00,,,0.00,WUHU216HW,2013-05-07 15:56:00,
2013-05-07 11:01:00,74.2,57.4,29.95,SW,225,6.3,6.9,56,0.00,,,0.00,WUHU216HW,2013-05-07 16:01:00,
2013-05-07 11:06:00,74.2,57.4,29.95,East,90,2.2,6.9,56,0.00,,,0.00,WUHU216HW,2013-05-07 16:06:00,
2013-05-07 11:11:00,74.3,56.5,29.95,SSE,158,5.4,6.7,54,0.00,,,0.00,WUHU216HW,2013-05-07 16:11:00,
2013-05-07 11:16:00,74.5,56.7,29.95,South,180,2.7,6.7,54,0.00,,,0.00,WUHU216HW,2013-05-07 16:16:00,
2013-05-07 11:21:00,74.7,56.4,29.95,SSW,203,2.5,8.5,53,0.00,,,0.00,WUHU216HW,2013-05-07 16:21:00,
2013-05-07 11:26:00,75.1,56.3,29.95,South,180,4.9,8.5,52,0.00,,,0.00,WUHU216HW,2013-05-07 16:26:00,
2013-05-07 11:31:00,75.4,57.2,29.95,SW,225,3.4,8.3,53,0.00,,,0.00,WUHU216HW,2013-05-07 16:31:00,
2013-05-07 11:36:00,76.0,56.6,29.95,SSW,203,1.8,6.3,51,0.00,,,0.00,WUHU216HW,2013-05-07 16:36:00,
2013-05-07 11:41:00,76.1,56.3,29.94,South,180,4.0,7.2,50,0.00,,,0.00,WUHU216HW,2013-05-07 16:41:00,
2013-05-07 11:46:00,76.5,57.1,29.94,WSW,248,4.0,7.2,51,0.00,,,0.00,WUHU216HW,2013-05-07 16:46:00,
2013-05-07 11:51:00,77.0,58.1,29.94,ENE,68,0.4,5.4,52,0.00,,,0.00,WUHU216HW,2013-05-07 16:51:00,
2013-05-07 11:56:00,77.4,57.4,29.94,South,180,4.0,8.1,50,0.00,,,0.00,WUHU216HW,2013-05-07 16:56:00,
2013-05-07 12:01:00,77.4,57.9,29.94,South,180,1.1,8.1,51,0.00,,,0.00,WUHU216HW,2013-05-07 17:01:00,
2013-05-07 12:06:00,77.8,57.1,29.94,SSE,158,4.0,6.0,49,0.00,,,0.00,WUHU216HW,2013-05-07 17:06:00,
2013-05-07 12:11:00,77.8,57.1,29.94,South,180,2.9,7.8,49,0.00,,,0.00,WUHU216HW,2013-05-07 17:11:00,
2013-05-07 12:16:00,77.8,57.1,29.95,SSE,158,2.7,7.8,49,0.00,,,0.00,WUHU216HW,2013-05-07 17:16:00,
2013-05-07 12:21:00,78.1,58.1,29.94,ENE,68,0.4,4.0,50,0.00,,,0.00,WUHU216HW,2013-05-07 17:21:00,
2013-05-07 12:26:00,78.5,57.2,29.94,East,90,3.4,4.0,48,0.00,,,0.00,WUHU216HW,2013-05-07 17:26:00,
2013-05-07 12:31:00,78.8,58.1,29.94,ESE,113,1.6,4.0,49,0.00,,,0.00,WUHU216HW,2013-05-07 17:31:00,
2013-05-07 12:36:00,79.0,57.6,29.93,East,90,2.5,7.6,48,0.00,,,0.00,WUHU216HW,2013-05-07 17:36:00,
2013-05-07 12:41:00,78.8,56.9,29.93,South,180,4.9,7.6,47,0.00,,,0.00,WUHU216HW,2013-05-07 17:41:00,
2013-05-07 12:46:00,79.0,57.0,29.93,East,90,3.4,6.0,47,0.00,,,0.00,WUHU216HW,2013-05-07 17:46:00,
2013-05-07 12:51:00,79.4,58.0,29.93,ENE,68,3.1,5.4,48,0.00,,,0.00,WUHU216HW,2013-05-07 17:51:00,
2013-05-07 12:56:00,79.9,57.3,29.92,South,180,6.5,6.5,46,0.00,,,0.00,WUHU216HW,2013-05-07 17:56:00,
2013-05-07 13:01:00,79.9,56.6,29.92,ESE,113,4.3,6.5,45,0.00,,,0.00,WUHU216HW,2013-05-07 18:01:00,
2013-05-07 13:06:00,80.1,56.8,29.92,NE,45,4.0,6.5,45,0.00,,,0.00,WUHU216HW,2013-05-07 18:06:00,
2013-05-07 13:11:00,80.3,57.5,29.91,North,0,2.5,4.7,46,0.00,,,0.00,WUHU216HW,2013-05-07 18:11:00,
2013-05-07 13:16:00,81.0,58.1,29.91,SW,225,1.8,4.7,46,0.00,,,0.00,WUHU216HW,2013-05-07 18:16:00,
2013-05-07 13:21:00,81.4,57.2,29.91,WSW,248,3.1,5.6,44,0.00,,,0.00,WUHU216HW,2013-05-07 18:21:00,
2013-05-07 13:26:00,81.2,57.2,29.91,SW,225,6.9,6.9,44,0.00,,,0.00,WUHU216HW,2013-05-07 18:26:00,
2013-05-07 13:31:00,81.2,57.2,29.91,WNW,293,1.1,7.6,44,0.00,,,0.00,WUHU216HW,2013-05-07 18:31:00,
2013-05-07 13:36:00,81.2,56.5,29.91,SSE,158,4.3,7.6,43,0.00,,,0.00,WUHU216HW,2013-05-07 18:36:00,
2013-05-07 13:41:00,81.2,57.7,29.91,SSE,158,6.3,6.7,45,0.00,,,0.00,WUHU216HW,2013-05-07 18:41:00,
2013-05-07 13:46:00,81.4,56.7,29.91,West,270,3.1,7.4,43,0.00,,,0.00,WUHU216HW,2013-05-07 18:46:00,
2013-05-07 13:51:00,81.2,57.2,29.91,SSE,158,5.4,7.4,44,0.00,,,0.00,WUHU216HW,2013-05-07 18:51:00,
2013-05-07 13:56:00,81.4,56.1,29.90,WNW,293,1.6,6.9,42,0.00,,,0.00,WUHU216HW,2013-05-07 18:56:00,
2013-05-07 14:01:00,81.7,57.6,29.90,South,180,4.0,6.9,44,0.00,,,0.00,WUHU216HW,2013-05-07 19:01:00,
2013-05-07 14:06:00,81.9,56.5,29.90,SSW,203,4.7,7.6,42,0.00,,,0.00,WUHU216HW,2013-05-07 19:06:00,
2013-05-07 14:11:00,81.7,56.3,29.90,SSW,203,2.2,7.6,42,0.00,,,0.00,WUHU216HW,2013-05-07 19:11:00,
2013-05-07 14:16:00,82.1,56.7,29.90,South,180,5.8,8.7,42,0.00,,,0.00,WUHU216HW,2013-05-07 19:16:00,
2013-05-07 14:21:00,82.1,56.7,29.90,SW,225,2.9,8.7,42,0.00,,,0.00,WUHU216HW,2013-05-07 19:21:00,
2013-05-07 14:26:00,82.4,57.1,29.90,NNE,23,2.9,5.8,42,0.00,,,0.00,WUHU216HW,2013-05-07 19:26:00,
2013-05-07 14:31:00,82.8,58.0,29.89,South,180,2.7,3.4,43,0.00,,,0.00,WUHU216HW,2013-05-07 19:31:00,
2013-05-07 14:36:00,83.3,58.5,29.89,WNW,293,3.8,4.7,43,0.00,,,0.00,WUHU216HW,2013-05-07 19:36:00,
2013-05-07 14:41:00,83.9,57.1,29.89,SSW,203,2.0,4.7,40,0.00,,,0.00,WUHU216HW,2013-05-07 19:41:00,
2013-05-07 14:46:00,83.9,57.7,29.89,WNW,293,2.2,7.2,41,0.00,,,0.00,WUHU216HW,2013-05-07 19:46:00,
2013-05-07 14:51:00,83.7,56.2,29.89,NW,315,5.4,7.2,39,0.00,,,0.00,WUHU216HW,2013-05-07 19:51:00,
2013-05-07 14:56:00,83.5,56.0,29.89,ENE,68,1.8,6.5,39,0.00,,,0.00,WUHU216HW,2013-05-07 19:56:00,
2013-05-07 15:01:00,83.7,57.0,29.88,WSW,248,5.4,7.4,40,0.00,,,0.00,WUHU216HW,2013-05-07 20:01:00,
2013-05-07 15:06:00,83.7,55.4,29.88,NW,315,3.4,7.4,38,0.00,,,0.00,WUHU216HW,2013-05-07 20:06:00,
2013-05-07 15:11:00,84.1,56.4,29.88,WSW,248,3.1,5.4,39,0.00,,,0.00,WUHU216HW,2013-05-07 20:11:00,
2013-05-07 15:16:00,84.2,56.6,29.88,ESE,113,7.2,7.8,39,0.00,,,0.00,WUHU216HW,2013-05-07 20:16:00,
2013-05-07 15:21:00,83.9,56.4,29.87,East,90,2.7,7.8,39,0.00,,,0.00,WUHU216HW,2013-05-07 20:21:00,
2013-05-07 15:26:00,84.1,56.4,29.88,SE,135,5.1,7.6,39,0.00,,,0.00,WUHU216HW,2013-05-07 20:26:00,
2013-05-07 15:31:00,84.1,55.7,29.87,SSE,158,4.9,7.6,38,0.00,,,0.00,WUHU216HW,2013-05-07 20:31:00,
2013-05-07 15:36:00,83.7,55.4,29.87,SSW,203,5.1,7.6,38,0.00,,,0.00,WUHU216HW,2013-05-07 20:36:00,
2013-05-07 15:41:00,83.5,55.2,29.87,SW,225,4.0,7.6,38,0.00,,,0.00,WUHU216HW,2013-05-07 20:41:00,
2013-05-07 15:46:00,83.5,54.4,29.86,NE,45,1.3,7.6,37,0.00,,,0.00,WUHU216HW,2013-05-07 20:46:00,
2013-05-07 15:51:00,83.9,55.5,29.86,SSW,203,3.8,5.1,38,0.00,,,0.00,WUHU216HW,2013-05-07 20:51:00,
2013-05-07 15:56:00,84.1,54.9,29.86,SE,135,4.7,6.0,37,0.00,,,0.00,WUHU216HW,2013-05-07 20:56:00,
2013-05-07 16:01:00,83.7,54.5,29.86,SSW,203,1.1,6.9,37,0.00,,,0.00,WUHU216HW,2013-05-07 21:01:00,
2013-05-07 16:06:00,83.9,55.5,29.86,North,0,1.8,6.9,38,0.00,,,0.00,WUHU216HW,2013-05-07 21:06:00,
2013-05-07 16:11:00,84.4,56.0,29.86,ESE,113,4.7,7.2,38,0.00,,,0.00,WUHU216HW,2013-05-07 21:11:00,
2013-05-07 16:16:00,84.2,56.6,29.85,SSE,158,6.3,7.2,39,0.00,,,0.00,WUHU216HW,2013-05-07 21:16:00,
2013-05-07 16:21:00,84.1,54.1,29.85,SSE,158,4.9,8.9,36,0.00,,,0.00,WUHU216HW,2013-05-07 21:21:00,
2013-05-07 16:26:00,83.7,56.2,29.85,SSE,158,1.8,8.9,39,0.00,,,0.00,WUHU216HW,2013-05-07 21:26:00,
2013-05-07 16:31:00,83.9,55.5,29.85,WSW,248,1.8,7.6,38,0.00,,,0.00,WUHU216HW,2013-05-07 21:31:00,
2013-05-07 16:36:00,84.2,56.6,29.85,ENE,68,1.6,4.5,39,0.00,,,0.00,WUHU216HW,2013-05-07 21:36:00,
2013-05-07 16:41:00,84.4,56.0,29.85,SE,135,4.5,7.4,38,0.00,,,0.00,WUHU216HW,2013-05-07 21:41:00,
2013-05-07 16:46:00,84.2,56.6,29.84,SE,135,1.3,7.4,39,0.00,,,0.00,WUHU216HW,2013-05-07 21:46:00,
2013-05-07 16:51:00,83.9,55.5,29.84,SSE,158,5.4,7.8,38,0.00,,,0.00,WUHU216HW,2013-05-07 21:51:00,
2013-05-07 16:56:00,83.5,56.0,29.84,South,180,4.7,8.5,39,0.00,,,0.00,WUHU216HW,2013-05-07 21:56:00,
2013-05-07 17:01:00,83.7,57.0,29.84,ENE,68,6.9,8.5,40,0.00,,,0.00,WUHU216HW,2013-05-07 22:01:00,
2013-05-07 17:06:00,83.9,57.1,29.84,SE,135,5.6,7.6,40,0.00,,,0.00,WUHU216HW,2013-05-07 22:06:00,
2013-05-07 17:11:00,84.1,57.2,29.84,ESE,113,6.3,8.5,40,0.00,,,0.00,WUHU216HW,2013-05-07 22:11:00,
2013-05-07 17:16:00,84.4,57.6,29.84,ESE,113,0.4,8.5,40,0.00,,,0.00,WUHU216HW,2013-05-07 22:16:00,
2013-05-07 17:21:00,84.4,56.8,29.84,ESE,113,1.6,8.5,39,0.00,,,0.00,WUHU216HW,2013-05-07 22:21:00,
2013-05-07 17:26:00,84.4,57.6,29.84,SE,135,4.9,8.5,40,0.00,,,0.00,WUHU216HW,2013-05-07 22:26:00,
2013-05-07 17:31:00,84.1,56.4,29.83,SE,135,4.3,8.5,39,0.00,,,0.00,WUHU216HW,2013-05-07 22:31:00,
2013-05-07 17:36:00,83.9,57.1,29.84,SSE,158,6.5,8.5,40,0.00,,,0.00,WUHU216HW,2013-05-07 22:36:00,
2013-05-07 17:41:00,83.5,56.0,29.84,SE,135,6.0,9.6,39,0.00,,,0.00,WUHU216HW,2013-05-07 22:41:00,
2013-05-07 17:46:00,83.2,56.4,29.83,SSE,158,4.7,9.6,40,0.00,,,0.00,WUHU216HW,2013-05-07 22:46:00,
2013-05-07 17:51:00,83.0,56.3,29.83,SSE,158,6.5,7.8,40,0.00,,,0.00,WUHU216HW,2013-05-07 22:51:00,
2013-05-07 17:56:00,83.0,56.3,29.83,SSE,158,5.4,7.8,40,0.00,,,0.00,WUHU216HW,2013-05-07 22:56:00,
2013-05-07 18:01:00,82.8,56.2,29.83,SSE,158,1.8,6.5,40,0.00,,,0.00,WUHU216HW,2013-05-07 23:01:00,
2013-05-07 18:06:00,82.8,56.2,29.83,SSE,158,5.4,6.5,40,0.00,,,0.00,WUHU216HW,2013-05-07 23:06:00,
2013-05-07 18:11:00,82.8,56.2,29.83,SE,135,2.7,6.3,40,0.00,,,0.00,WUHU216HW,2013-05-07 23:11:00,
2013-05-07 18:16:00,83.0,56.3,29.83,South,180,4.3,6.3,40,0.00,,,0.00,WUHU216HW,2013-05-07 23:16:00,
2013-05-07 18:21:00,82.6,56.0,29.83,SSE,158,3.1,8.7,40,0.00,,,0.00,WUHU216HW,2013-05-07 23:21:00,
2013-05-07 18:26:00,82.3,54.8,29.83,SE,135,4.3,8.7,39,0.00,,,0.00,WUHU216HW,2013-05-07 23:26:00,
2013-05-07 18:31:00,82.3,55.6,29.83,SE,135,4.9,6.9,40,0.00,,,0.00,WUHU216HW,2013-05-07 23:31:00,
2013-05-07 18:36:00,82.1,55.4,29.83,SE,135,4.0,7.8,40,0.00,,,0.00,WUHU216HW,2013-05-07 23:36:00,
2013-05-07 18:41:00,81.9,55.4,29.83,SSE,158,3.1,7.8,40,0.00,,,0.00,WUHU216HW,2013-05-07 23:41:00,
2013-05-07 18:46:00,81.7,55.2,29.83,SE,135,4.3,6.0,40,0.00,,,0.00,WUHU216HW,2013-05-07 23:46:00,
2013-05-07 18:51:00,81.5,55.0,29.83,SE,135,2.9,6.0,40,0.00,,,0.00,WUHU216HW,2013-05-07 23:51:00,
2013-05-07 18:56:00,81.4,54.8,29.83,SE,135,2.5,5.8,40,0.00,,,0.00,WUHU216HW,2013-05-07 23:56:00,
2013-05-07 19:01:00,81.4,55.4,29.83,South,180,2.0,4.0,41,0.00,,,0.00,WUHU216HW,2013-05-08 00:01:00,
2013-05-07 19:06:00,81.2,55.3,29.83,SE,135,3.1,4.5,41,0.00,,,0.00,WUHU216HW,2013-05-08 00:06:00,
2013-05-07 19:11:00,81.0,55.7,29.83,SE,135,2.9,4.5,42,0.00,,,0.00,WUHU216HW,2013-05-08 00:11:00,
2013-05-07 19:16:00,80.6,55.5,29.83,SSE,158,4.0,4.7,42,0.00,,,0.00,WUHU216HW,2013-05-08 00:16:00,
2013-05-07 19:21:00,80.3,55.1,29.83,SSE,158,2.9,5.1,42,0.00,,,0.00,WUHU216HW,2013-05-08 00:21:00,
2013-05-07 19:26:00,79.9,55.4,29.83,SSE,158,2.5,5.1,43,0.00,,,0.00,WUHU216HW,2013-05-08 00:26:00,
2013-05-07 19:31:00,79.6,55.1,29.83,SE,135,2.5,2.9,43,0.00,,,0.00,WUHU216HW,2013-05-08 00:31:00,
2013-05-07 19:36:00,79.6,55.1,29.83,SE,135,2.0,3.8,43,0.00,,,0.00,WUHU216HW,2013-05-08 00:36:00,
2013-05-07 19:41:00,79.2,54.7,29.83,SE,135,1.1,3.8,43,0.00,,,0.00,WUHU216HW,2013-05-08 00:41:00,
2013-05-07 19:46:00,79.0,54.5,29.83,SE,135,1.8,2.5,43,0.00,,,0.00,WUHU216HW,2013-05-08 00:46:00,
2013-05-07 19:51:00,79.0,55.2,29.83,SE,135,1.8,2.5,44,0.00,,,0.00,WUHU216HW,2013-05-08 00:51:00,
2013-05-07 19:56:00,78.8,55.0,29.83,SE,135,2.2,2.5,44,0.00,,,0.00,WUHU216HW,2013-05-08 00:56:00,
2013-05-07 20:01:00,78.5,54.7,29.83,ESE,113,2.0,2.5,44,0.00,,,0.00,WUHU216HW,2013-05-08 01:01:00,
2013-05-07 20:06:00,77.8,54.6,29.83,East,90,2.0,2.5,45,0.00,,,0.00,WUHU216HW,2013-05-08 01:06:00,
2013-05-07 20:11:00,76.9,54.5,29.84,East,90,1.6,2.5,46,0.00,,,0.00,WUHU216HW,2013-05-08 01:11:00,
2013-05-07 20:16:00,76.1,54.5,29.84,East,90,1.3,2.2,47,0.00,,,0.00,WUHU216HW,2013-05-08 01:16:00,
2013-05-07 20:21:00,75.6,54.5,29.84,ESE,113,1.8,1.8,48,0.00,,,0.00,WUHU216HW,2013-05-08 01:21:00,
2013-05-07 20:26:00,75.1,54.0,29.84,ESE,113,1.3,2.0,48,0.00,,,0.00,WUHU216HW,2013-05-08 01:26:00,
2013-05-07 20:31:00,74.5,54.1,29.84,East,90,2.2,2.2,49,0.00,,,0.00,WUHU216HW,2013-05-08 01:31:00,
2013-05-07 20:36:00,74.2,53.7,29.84,East,90,2.7,2.9,49,0.00,,,0.00,WUHU216HW,2013-05-08 01:36:00,
2013-05-07 20:41:00,74.0,53.6,29.84,East,90,2.7,2.9,49,0.00,,,0.00,WUHU216HW,2013-05-08 01:41:00,
2013-05-07 20:46:00,73.8,54.0,29.84,ESE,113,2.7,2.9,50,0.00,,,0.00,WUHU216HW,2013-05-08 01:46:00,
2013-05-07 20:51:00,73.4,53.6,29.84,ESE,113,3.1,3.1,50,0.00,,,0.00,WUHU216HW,2013-05-08 01:51:00,
2013-05-07 20:56:00,73.4,54.2,29.84,ESE,113,2.9,3.1,51,0.00,,,0.00,WUHU216HW,2013-05-08 01:56:00,
2013-05-07 21:01:00,73.1,53.8,29.84,East,90,3.1,3.1,51,0.00,,,0.00,WUHU216HW,2013-05-08 02:01:00,
2013-05-07 21:06:00,72.9,54.2,29.84,East,90,3.4,3.8,52,0.00,,,0.00,WUHU216HW,2013-05-08 02:06:00,
2013-05-07 21:11:00,72.5,54.4,29.85,ESE,113,4.3,4.7,53,0.00,,,0.00,WUHU216HW,2013-05-08 02:11:00,
2013-05-07 21:16:00,72.4,54.2,29.85,ESE,113,3.4,4.7,53,0.00,,,0.00,WUHU216HW,2013-05-08 02:16:00,
2013-05-07 21:21:00,72.2,54.6,29.85,ESE,113,4.0,4.3,54,0.00,,,0.00,WUHU216HW,2013-05-08 02:21:00,
2013-05-07 21:26:00,72.0,54.4,29.84,ESE,113,3.6,4.5,54,0.00,,,0.00,WUHU216HW,2013-05-08 02:26:00,
2013-05-07 21:31:00,71.6,54.0,29.85,ESE,113,3.8,4.5,54,0.00,,,0.00,WUHU216HW,2013-05-08 02:31:00,
2013-05-07 21:36:00,71.6,54.0,29.85,ESE,113,4.0,4.0,54,0.00,,,0.00,WUHU216HW,2013-05-08 02:36:00,
2013-05-07 21:41:00,71.5,54.4,29.84,ESE,113,3.6,4.0,55,0.00,,,0.00,WUHU216HW,2013-05-08 02:41:00,
2013-05-07 21:46:00,71.3,54.2,29.85,ESE,113,3.4,4.0,55,0.00,,,0.00,WUHU216HW,2013-05-08 02:46:00,
2013-05-07 21:51:00,71.3,53.7,29.85,ESE,113,3.4,4.0,54,0.00,,,0.00,WUHU216HW,2013-05-08 02:51:00,
2013-05-07 21:56:00,71.3,53.7,29.85,ESE,113,3.6,3.8,54,0.00,,,0.00,WUHU216HW,2013-05-08 02:56:00,
2013-05-07 22:01:00,71.3,53.7,29.85,ESE,113,3.1,3.8,54,0.00,,,0.00,WUHU216HW,2013-05-08 03:01:00,
2013-05-07 22:06:00,71.1,54.1,29.85,ESE,113,3.6,3.8,55,0.00,,,0.00,WUHU216HW,2013-05-08 03:06:00,
2013-05-07 22:11:00,70.9,53.9,29.85,ESE,113,3.6,4.0,55,0.00,,,0.00,WUHU216HW,2013-05-08 03:11:00,
2013-05-07 22:16:00,70.6,53.6,29.85,ESE,113,4.0,4.0,55,0.00,,,0.00,WUHU216HW,2013-05-08 03:16:00,
2013-05-07 22:21:00,70.2,53.7,29.85,ESE,113,4.0,4.3,56,0.00,,,0.00,WUHU216HW,2013-05-08 03:21:00,
2013-05-07 22:26:00,69.8,53.9,29.85,ESE,113,3.4,4.3,57,0.00,,,0.00,WUHU216HW,2013-05-08 03:26:00,
2013-05-07 22:31:00,69.8,53.9,29.85,ESE,113,3.1,4.0,57,0.00,,,0.00,WUHU216HW,2013-05-08 03:31:00,
2013-05-07 22:36:00,69.5,54.1,29.85,ESE,113,3.8,4.0,58,0.00,,,0.00,WUHU216HW,2013-05-08 03:36:00,
2013-05-07 22:41:00,69.5,54.1,29.86,East,90,3.6,4.0,58,0.00,,,0.00,WUHU216HW,2013-05-08 03:41:00,
2013-05-07 22:46:00,69.3,54.4,29.86,ESE,113,2.9,4.0,59,0.00,,,0.00,WUHU216HW,2013-05-08 03:46:00,
2013-05-07 22:51:00,69.1,54.7,29.86,ESE,113,4.0,4.5,60,0.00,,,0.00,WUHU216HW,2013-05-08 03:51:00,
2013-05-07 22:56:00,68.8,54.4,29.86,East,90,4.3,4.5,60,0.00,,,0.00,WUHU216HW,2013-05-08 03:56:00,
2013-05-07 23:01:00,68.6,54.6,29.86,ESE,113,3.6,4.5,61,0.00,,,0.00,WUHU216HW,2013-05-08 04:01:00,
2013-05-07 23:06:00,68.4,54.5,29.86,ESE,113,3.4,4.5,61,0.00,,,0.00,WUHU216HW,2013-05-08 04:06:00,
2013-05-07 23:11:00,68.2,54.3,29.86,ESE,113,3.4,4.3,61,0.00,,,0.00,WUHU216HW,2013-05-08 04:11:00,
2013-05-07 23:16:00,68.2,54.3,29.86,ESE,113,3.6,4.0,61,0.00,,,0.00,WUHU216HW,2013-05-08 04:16:00,
2013-05-07 23:21:00,68.0,54.1,29.86,ESE,113,3.6,4.0,61,0.00,,,0.00,WUHU216HW,2013-05-08 04:21:00,
2013-05-07 23:26:00,67.9,53.9,29.86,ESE,113,3.4,4.0,61,0.00,,,0.00,WUHU216HW,2013-05-08 04:26:00,
2013-05-07 23:31:00,67.7,54.2,29.86,ESE,113,2.9,4.0,62,0.00,,,0.00,WUHU216HW,2013-05-08 04:31:00,
2013-05-07 23:36:00,67.5,54.0,29.86,ESE,113,3.4,4.0,62,0.00,,,0.00,WUHU216HW,2013-05-08 04:36:00,
2013-05-07 23:41:00,67.3,54.3,29.86,ESE,113,3.8,4.0,63,0.00,,,0.00,WUHU216HW,2013-05-08 04:41:00,
2013-05-07 23:46:00,67.1,54.1,29.86,ESE,113,3.6,4.0,63,0.00,,,0.00,WUHU216HW,2013-05-08 04:46:00,
2013-05-07 23:51:00,67.0,54.4,29.86,East,90,3.6,4.0,64,0.00,,,0.00,WUHU216HW,2013-05-08 04:51:00,
2013-05-07 23:56:00,67.0,54.4,29.86,ESE,113,3.8,4.3,64,0.00,,,0.00,WUHU216HW,2013-05-08 04:56:00,